Location: Madrid
(40.4000°N, 3.6830°W)
Time: 17:08:43
(UTC+02:00)

ISS - Pass Details

Date: 11 March 2021
Orbit: 418 x 422 km, 51.6° (Epoch: 16 April)

Event Time Altitude Azimuth Distance (km) Brightness Sun altitude
Exits shadow 05:00:31 17° 60° (ENE) 1,151 -0.8 -29.2°
Drops below altitude 10° 05:01:43 10° 77° (ENE) 1,495 0.0 -29.0°
Sets 05:04:07 0° 93° (E) 2,357 1.0 -28.6°
